Regional Weather Roundup
Issued by NWS

Home | Current Version | Previous Version | Text Only | Print | Product List | Glossary Off
Versions: 1 2 3 4 5 6 7 8 9 10 11 12 13 14 15 16 17 18 19 20 21 22 23 24 25 26 27 28

000
ASUS45 KCYS 230010
RWRWY

WYOMING REGIONAL WEATHER ROUNDUP
NATIONAL WEATHER SERVICE CHEYENNE WY
600 PM MDT SAT JUL 22 2017

NOTE:  "FAIR" INDICATES FEW OR NO CLOUDS BELOW 12,000 FEET
WITH NO SIGNIFICANT WEATHER AND/OR OBSTRUCTIONS TO VISIBILITY.

WYZ001-230100-
YELLOWSTONE NATIONAL PARK

CITY           SKY/WX    TMP DP  RH WIND       PRES   REMARKS
LK YELLOWSTONE   N/A     78  17  10 VRB3      30.38S
6HR MIN TEMP:  67; 6HR MAX TEMP:  78;

W YELLOWSTONE  NOT AVBL

$$
WYZ002>013-054>058-071-098>099-230100-
NORTHERN WYOMING

CITY           SKY/WX    TMP DP  RH WIND       PRES   REMARKS
JACKSON        SUNNY     82  34  17 SW12      30.26F
CODY           FAIR      83  36  18 NE12      30.16S
GREYBULL       FAIR      92  32  12 E7        30.04F
6HR MIN TEMP:  83; 6HR MAX TEMP:  94;

WORLAND        FAIR      92  31  11 N7        30.06F
6HR MIN TEMP:  83; 6HR MAX TEMP:  93;

SHERIDAN       FAIR      89  32  13 W3        30.10F
6HR MIN TEMP:  81; 6HR MAX TEMP:  90;

BUFFALO        FAIR      85  31  14 N7        30.17F
6HR MIN TEMP:  80; 6HR MAX TEMP:  88;

GILLETTE       FAIR      89  30  12 NE7       30.11F
6HR MIN TEMP:  85; 6HR MAX TEMP:  91;

HULETT         FAIR      88  32  13 N7        30.12F
NEWCASTLE      FAIR      90  30  12 NW6G16    30.09S

$$
WYZ014>020-022>026-101>103-230100-
CENTRAL WYOMING

CITY           SKY/WX    TMP DP  RH WIND       PRES   REMARKS
BIG PINEY      FAIR      84  30  14 N10       30.29F
6HR MIN TEMP:  76; 6HR MAX TEMP:  87;

PINEDALE       FAIR      81  28  15 NW15      30.30F
DUBOIS         FAIR      81  28  15 NW9G17    30.29S
LANDER         FAIR      87  35  15 SE6       30.13F
6HR MIN TEMP:  81; 6HR MAX TEMP:  89;

RIVERTON       FAIR      89  25  10 E7        30.14F
6HR MIN TEMP:  80; 6HR MAX TEMP:  89;

CASPER         FAIR      89  25  10 VRB3      30.15F
6HR MIN TEMP:  82; 6HR MAX TEMP:  90;

DOUGLAS        FAIR      89  40  17 NE14      30.12F
6HR MIN TEMP:  85; 6HR MAX TEMP:  92;


$$
WYZ021-027>030-104>119-230100-
SOUTHERN WYOMING

CITY           SKY/WX    TMP DP  RH WIND       PRES   REMARKS
EVANSTON       FAIR      86  30  13 NW9G20    30.29F
6HR MIN TEMP:  81; 6HR MAX TEMP:  88;

KEMMERER         N/A     82  23  11 NW14G21   30.31F
FORT BRIDGER   FAIR      88  26  10 NW12      30.30F
ROCK SPRINGS   FAIR      87  22   9 NW9G22    30.25F
6HR MIN TEMP:  78; 6HR MAX TEMP:  89;

RAWLINS        FAIR      84  29  13 N14G21    30.27F
6HR MIN TEMP:  80; 6HR MAX TEMP:  87;

SARATOGA       FAIR      82  30  15 N8G17     30.29S
LARAMIE        FAIR      80  33  18 NW12G24   30.28F
6HR MIN TEMP:  75; 6HR MAX TEMP:  83;

CHEYENNE       FAIR      82  46  28 SE5       30.19F
6HR MIN TEMP:  77; 6HR MAX TEMP:  87;

TORRINGTON     FAIR      90  47  22 SE7       30.03F
6HR MIN TEMP:  83; 6HR MAX TEMP:  93;

PINE BLUFFS    FAIR      84  43  23 N5        30.14S

$$




USA.gov is the U.S. government's official web portal to all federal, state and local government web resources and services.